This demonstration page uses our WeatherBlox Daily Observations layout. Learn more.

36.17497, -115.13722

Hourly Observations for January 3, 2018

Temp ( °F °C ) Dew Point ( °F °C ) Humidity (%) Winds ( mph kmh ) Pressure ( in mb ) Visibility ( mi km ) Precip ( " mm )
12:53 am 00:53 Clear 44 6.7 23 -5 43 43 NW 3 6 30.29 1026 10 16.0934 0 0
1:53 am 01:53 Clear 45 7.2 25 -3.9 46 46 W 5 7 30.29 1026 10 16.0934 0 0
2:53 am 02:53 Clear 47 8.3 21 -6.1 36 36 Calm 30.28 1026 10 16.0934 0 0
3:53 am 03:53 Clear 43 6.1 24 -4.4 47 47 WNW 8 13 30.28 1026 10 16.0934 0 0
4:53 am 04:53 Clear 45 7.2 19 -7.2 35 35 WNW 5 7 30.28 1025 10 16.0934 0 0
5:53 am 05:53 Clear 44 6.7 17 -8.3 34 34 WNW 3 6 30.3 1026 10 16.0934 0 0
6:53 am 06:53 Sunny 42 5.6 19 -7.2 40 40 WNW 8 13 30.32 1027 10 16.0934 0 0
7:53 am 07:53 Sunny 42 5.6 20 -6.7 41 41 WNW 8 13 30.33 1027 10 16.0934 0 0
8:53 am 08:53 Sunny 46 7.8 21 -6.1 37 37 Calm 30.32 1027 10 16.0934 0 0
9:53 am 09:53 Sunny 48 8.9 20 -6.7 33 33 SW 3 6 30.32 1027 10 16.0934 0 0
10:53 am 10:53 Sunny 54 12.2 12 -11.1 19 19 Calm 30.29 1026 10 16.0934 0 0
11:53 am 11:53 Sunny 57 13.9 11 -11.7 16 16 Calm 30.24 1024 10 16.0934 0 0
12:53 pm 12:53 Sunny 60 15.6 11 -11.7 14 14 Calm 30.21 1023 10 16.0934 0 0
1:53 pm 13:53 Sunny 60 15.6 10 -12.2 14 14 SSE 3 6 30.19 1022 10 16.0934 0 0
2:53 pm 14:53 Sunny 61 16.1 7 -13.9 11 11 S 5 7 30.17 1022 10 16.0934 0 0
3:53 pm 15:53 Sunny 61 16.1 7 -13.9 11 11 SSW 3 6 30.17 1022 10 16.0934 0 0
4:53 pm 16:53 Clear 58 14.4 8 -13.3 13 13 Calm 30.17 1022 10 16.0934 0 0
5:53 pm 17:53 Clear 57 13.9 13 -10.6 17 17 WSW 3 6 30.19 1022 10 16.0934 0 0
6:53 pm 18:53 Clear 53 11.7 15 -9.4 22 22 NNW 3 6 30.21 1023 10 16.0934 0 0
7:53 pm 19:53 Clear 52 11.1 16 -8.9 24 24 NNW 5 7 30.21 1023 10 16.0934 0 0
8:53 pm 20:53 Clear 51 10.6 16 -8.9 25 25 WNW 3 6 30.21 1023 10 16.0934 0 0
9:53 pm 21:53 Clear 50 10 17 -8.3 27 27 NNW 3 6 30.21 1023 10 16.0934 0 0
10:53 pm 22:53 Clear 49 9.4 16 -8.9 27 27 NW 5 7 30.2 1023 10 16.0934 0 0
11:53 pm 23:53 Clear 48 8.9 17 -8.3 29 29 NNW 6 9 30.19 1023 10 16.0934 0 0

Powered by AerisWeather